Location: Hanover
(52.3667°N, 9.7167°E)
Time: 04:19:56
(UTC+02:00)

ARIANE 6 FM1 Upper Stage - Pass Details

Date: 29 September 2024
Orbit: 564 x 594 km, 62.0° (Epoch: 06 October)

Event Time Altitude Azimuth Distance (km) Brightness Sun altitude
Rises 22:36:57 0° 292° (WNW) 2,812 7.2 -31.1°
Reaches altitude 10° 22:39:36 10° 308° (NW) 1,918 6.2 -31.4°
Enters shadow 22:42:34 22° 350° (N) 1,299 4.9 -31.7°
